Location: Peebles
(55.6412°N, 3.1714°W)
Time: 01:20:42
(UTC+01:00)

NAPA-1 - Pass Details

Date: 07 July 2022
Orbit: 525 x 528 km, 97.4° (Epoch: 14 August)

Event Time Altitude Azimuth Distance (km) Brightness Sun altitude
Exits shadow 23:22:17 - 192° (SSW) 2,225 ? -8.1°
Reaches altitude 10° 23:23:27 10° 199° (SSW) 1,771 ? -8.2°
Maximum altitude 23:26:56 33° 264° (W) 913 ? -8.4°
Drops below altitude 10° 23:30:26 10° 330° (NNW) 1,783 ? -8.6°
Sets 23:32:43 0° 340° (NNW) 2,678 ? -8.7°
